Northeast Philadelphia, PA

8:03 AM EDT on April 23, 2018 (GMT -0400)
Northeast Philadelphia

Weather History for KPNE - March, 2014

Change the Weather History Date:

Saturday, March 15, 2014

  Actual Average Record
Temperature  
Mean Temperature 56 °F -  
Max Temperature 64 °F 47 °F 71 °F (2002)
Min Temperature 46 °F 30 °F 21 °F (2017)
Degree Days  
Heating Degree Days 10    
Growing Degree Days 6 (Base 50)    
Moisture  
Dew Point 24 °F    
Average Humidity 32    
Maximum Humidity 41    
Minimum Humidity 23    
Precipitation  
Precipitation 0.00 in - - ()
Sea Level Pressure  
Sea Level Pressure 29.88 in    
Wind  
Wind Speed 13 mph (West)    
Max Wind Speed 25 mph    
Max Gust Speed 34 mph    
Visibility 10 miles    
Events      
Averages and records for this station are not official NWS values.
T = Trace of Precipitation, MM = Missing Value Source: NWS Daily Summary

Daily Weather History Graph

Daily Weather History Graph

Search for Another Location

Airport or City:

Astronomy

Mar. 15, 2014 Rise Set
Actual Time 7:11 AM EDT 7:06 PM EDT
Civil Twilight 6:44 AM EDT 7:33 PM EDT
Nautical Twilight 6:13 AM EDT 8:05 PM EDT
Astronomical Twilight 5:41 AM EDT 8:37 PM EDT
Moon 6:23 PM EDT (3/15) 6:22 AM EDT (3/15)
Length of Visible Light 12h 49m
Length of Day
11h 55m
Waxing Gibbous, 99% of the Moon is Illuminated
Mar 15
Waxing Gibbous
Mar 16
Full
Mar 23
Last Quarter
Mar 30
New
Apr 7
First Quarter

Hourly Weather History & Observations

Time (EDT) Temp. Dew Point Humidity Pressure Visibility Wind Dir Wind Speed Gust Speed Precip Events Conditions
12:54 AM 48.0 °F 23.0 °F 37% 29.89 in 10.0 mi SW 12.7 mph 24.2 mph N/A   Clear
1:54 AM 48.0 °F 24.1 °F 39% 29.88 in 10.0 mi SW 11.5 mph - N/A   Partly Cloudy
2:54 AM 48.0 °F 25.0 °F 41% 29.87 in 10.0 mi SSW 10.4 mph - N/A   Overcast
3:54 AM 48.9 °F 25.0 °F 39% 29.82 in 10.0 mi SSW 11.5 mph - N/A   Overcast
4:54 AM 50.0 °F 24.1 °F 36% 29.81 in 10.0 mi SW 13.8 mph 21.9 mph N/A   Overcast
5:54 AM 50.0 °F 25.0 °F 38% 29.81 in 10.0 mi SW 10.4 mph - N/A   Mostly Cloudy
6:54 AM 50.0 °F 25.0 °F 38% 29.81 in 10.0 mi SSW 9.2 mph - N/A   Mostly Cloudy
7:54 AM 51.1 °F 25.0 °F 36% 29.83 in 10.0 mi WSW 12.7 mph - N/A   Overcast
8:08 AM 50.0 °F 26.1 °F 39% 29.86 in 10.0 mi WNW 10.4 mph - N/A   Overcast
8:54 AM 51.1 °F 26.1 °F 38% 29.84 in 10.0 mi SW 8.1 mph - 0.00 in   Overcast
9:54 AM 53.1 °F 25.0 °F 34% 29.85 in 10.0 mi SW 12.7 mph - N/A   Overcast
10:54 AM 57.0 °F 27.0 °F 32% 29.85 in 10.0 mi WSW 16.1 mph 25.3 mph N/A   Clear
11:54 AM 61.0 °F 26.1 °F 26% 29.84 in 10.0 mi West 25.3 mph 34.5 mph N/A   Mostly Cloudy
12:54 PM 60.1 °F 26.1 °F 27% 29.85 in 10.0 mi West 24.2 mph 32.2 mph N/A   Scattered Clouds
1:54 PM 61.0 °F 24.1 °F 24% 29.84 in 10.0 mi West 21.9 mph 28.8 mph N/A   Partly Cloudy
2:54 PM 62.1 °F 24.1 °F 23% 29.84 in 10.0 mi WNW 19.6 mph 28.8 mph N/A   Partly Cloudy
3:54 PM 63.0 °F 25.0 °F 24% 29.85 in 10.0 mi WNW 13.8 mph 26.5 mph N/A   Partly Cloudy
4:54 PM 60.1 °F 23.0 °F 24% 29.87 in 10.0 mi WNW 12.7 mph 26.5 mph N/A   Partly Cloudy
5:54 PM 59.0 °F 21.0 °F 23% 29.89 in 10.0 mi NW 13.8 mph - N/A   Clear
6:54 PM 55.9 °F 19.9 °F 25% 29.93 in 10.0 mi NW 13.8 mph - N/A   Clear
7:54 PM 54.0 °F 19.9 °F 26% 29.96 in 10.0 mi WNW 16.1 mph 21.9 mph N/A   Clear
8:54 PM 52.0 °F 21.0 °F 30% 30.00 in 10.0 mi NW 9.2 mph - N/A   Clear
9:54 PM 50.0 °F 19.9 °F 31% 30.03 in 10.0 mi NW 8.1 mph - N/A   Clear
10:54 PM 48.0 °F 19.9 °F 33% 30.04 in 10.0 mi NW 5.8 mph - N/A   Clear
11:54 PM 46.9 °F 21.9 °F 37% 30.05 in 10.0 mi NW 10.4 mph - N/A   Clear